Back to catalog

STARLINK-30322

AliveCommunicationsVLEO
NORAD 57670·PAYLOAD·🇺🇸 United States

Launched Aug 22, 2023 from Vandenberg Space Force Base

Loading…

Next Passes (next 24 hours)

TLE

FreshSource: CelesTrak SupGP

Epoch: Sep 15, 2026, 02:27 UTC

1 57670C 23124H   26258.10256944 -.00017918  00000+0 -52952-3 0  2582
2 57670  53.1606  44.7053 0001086  87.5620  57.5172 15.34391716    12

Track STARLINK-30322 in real time with AllMySat

Download on the App Store